Inverness, United Kingdom

2:28 PM BST on July 26, 2016 (GMT +0100)
Inverness

Weather History for EGPE - July, 2013

Change the Weather History Date:

Friday, July 12, 2013

  Actual Average Record
Temperature  
Mean Temperature 62 °F -  
Max Temperature 78 °F 63 °F 78 °F (2013)
Min Temperature 46 °F 50 °F 42 °F (2010)
Degree Days  
Heating Degree Days 3    
Growing Degree Days 12 (Base 50)    
Moisture  
Dew Point 56 °F    
Average Humidity 72    
Maximum Humidity 100    
Minimum Humidity 44    
Precipitation  
Precipitation 0.00 in - - ()
Sea Level Pressure  
Sea Level Pressure 30.21 in    
Wind  
Wind Speed 5 mph ()    
Max Wind Speed 13 mph    
Max Gust Speed -    
Visibility 5.9 miles    
Events Fog    
Averages and records for this station are not official NWS values.
T = Trace of Precipitation, MM = Missing Value Source: Averaged Metar Reports

Daily Weather History Graph

Daily Weather History Graph

Search for Another Location

Airport or City:

Trip Planner

Search our weather history database for the weather conditions in past years. The results will help you decide how hot, cold, wet, or windy it might be!

Date:

Astronomy

Jul. 12, 2013 Rise Set
Actual Time 4:35 AM BST 10:06 PM BST
Civil Twilight 3:31 AM BST 11:10 PM BST
Nautical Twilight 1:54 AM BST 12:49 AM BST
Astronomical Twilight Sun does not set Sun does not set
Moon 9:45 AM BST (7/12) 10:57 PM BST (7/12)
Length of Visible Light 19h 38m
Length of Day
17h 31m
Waxing Crescent, 15% of the Moon is Illuminated
Jul 12
Waxing Crescent
Jul 16
First Quarter
Jul 22
Full
Jul 29
Last Quarter
Aug 6
New

Hourly Weather History & Observations

Time (BST) Temp. Dew Point Humidity Pressure Visibility Wind Dir Wind Speed Gust Speed Precip Events Conditions
12:20 AM 51.8 °F 50.0 °F 94% 30.24 in 4.3 mi South 2.3 mph - N/A   Unknown
12:50 AM 51.8 °F 50.0 °F 94% 30.24 in 5.0 mi Calm Calm - N/A   Unknown
1:20 AM 50.0 °F 48.2 °F 94% 30.24 in 0.7 mi Calm Calm - N/A   Mist
1:50 AM 48.2 °F 46.4 °F 93% 30.24 in - Calm Calm - N/A   Mist
2:20 AM 48.2 °F 48.2 °F 100% 30.24 in 6.2 mi South 2.3 mph - N/A Fog Patches of Fog
3:20 AM 46.4 °F 46.4 °F 100% 30.24 in 6.2 mi Calm Calm - N/A Fog Patches of Fog
3:50 AM 48.2 °F 46.4 °F 93% 30.24 in 6.2 mi Calm Calm - N/A   Partly Cloudy
4:20 AM 48.2 °F 48.2 °F 100% 30.24 in 6.2 mi South 2.3 mph - N/A Fog Shallow Fog
4:50 AM 48.2 °F 48.2 °F 100% 30.21 in 6.2 mi Calm Calm - N/A Fog Partly Cloudy
5:20 AM 51.8 °F 51.8 °F 100% 30.21 in 6.2 mi SW 4.6 mph - N/A   Partly Cloudy
5:50 AM 55.4 °F 55.4 °F 100% 30.21 in 6.2 mi SSW 4.6 mph - N/A   Partly Cloudy
6:20 AM 57.2 °F 57.2 °F 100% 30.21 in - SW 4.6 mph - N/A   Clear
6:50 AM 59.0 °F 59.0 °F 100% 30.21 in - SW 5.8 mph - N/A   Clear
7:20 AM 60.8 °F 59.0 °F 94% 30.21 in 6.2 mi SW 9.2 mph - N/A   Partly Cloudy
7:50 AM 62.6 °F 60.8 °F 94% 30.21 in 6.2 mi WSW 10.4 mph - N/A   Partly Cloudy
8:20 AM 66.2 °F 60.8 °F 83% 30.21 in 6.2 mi SW 10.4 mph - N/A   Partly Cloudy
8:50 AM 66.2 °F 60.8 °F 83% 30.21 in - WSW 10.4 mph - N/A   Clear
9:20 AM 68.0 °F 60.8 °F 78% 30.21 in - WSW 8.1 mph - N/A   Clear
9:50 AM 69.8 °F 60.8 °F 73% 30.21 in - WSW 10.4 mph - N/A   Clear
10:20 AM 69.8 °F 60.8 °F 73% 30.21 in - WSW 9.2 mph - N/A   Clear
10:50 AM 73.4 °F 59.0 °F 61% 30.21 in 6.2 mi WSW 8.1 mph - N/A   Partly Cloudy
11:20 AM 73.4 °F 59.0 °F 61% 30.21 in 6.2 mi WSW 8.1 mph - N/A   Partly Cloudy
11:50 AM 77.0 °F 59.0 °F 54% 30.21 in 6.2 mi WSW 9.2 mph - N/A   Partly Cloudy
12:20 PM 77.0 °F 55.4 °F 47% 30.21 in 6.2 mi WSW 9.2 mph - N/A   Partly Cloudy
12:50 PM 78.8 °F 57.2 °F 47% 30.21 in 6.2 mi WSW 8.1 mph - N/A   Partly Cloudy
1:20 PM 78.8 °F 57.2 °F 47% 30.21 in 6.2 mi West 10.4 mph - N/A   Partly Cloudy
1:50 PM 78.8 °F 59.0 °F 51% 30.21 in 6.2 mi WSW 8.1 mph - N/A   Partly Cloudy
2:20 PM 78.8 °F 59.0 °F 51% 30.21 in 6.2 mi West 5.8 mph - N/A   Partly Cloudy
2:50 PM 78.8 °F 59.0 °F 51% 30.18 in 6.2 mi West 8.1 mph - N/A   Partly Cloudy
3:20 PM 78.8 °F 60.8 °F 54% 30.18 in 6.2 mi WNW 8.1 mph - N/A   Partly Cloudy
3:50 PM 78.8 °F 59.0 °F 51% 30.18 in 6.2 mi NW 5.8 mph - N/A   Partly Cloudy
4:20 PM 77.0 °F 59.0 °F 54% 30.18 in 6.2 mi West 4.6 mph - N/A   Partly Cloudy
4:50 PM 78.8 °F 59.0 °F 51% 30.18 in 6.2 mi West 8.1 mph - N/A   Partly Cloudy
5:20 PM 77.0 °F 53.6 °F 44% 30.18 in 6.2 mi West 6.9 mph - N/A   Partly Cloudy
5:50 PM 75.2 °F 59.0 °F 57% 30.18 in 6.2 mi West 6.9 mph - N/A   Partly Cloudy
6:20 PM 75.2 °F 53.6 °F 47% 30.18 in 6.2 mi West 9.2 mph - N/A   Partly Cloudy
6:50 PM 75.2 °F 57.2 °F 53% 30.18 in 6.2 mi West 9.2 mph - N/A   Scattered Clouds
7:20 PM 75.2 °F 59.0 °F 57% 30.18 in 6.2 mi West 10.4 mph - N/A   Scattered Clouds
7:50 PM 73.4 °F 57.2 °F 57% 30.18 in 6.2 mi WSW 12.7 mph - N/A   Partly Cloudy
8:20 PM 71.6 °F 57.2 °F 60% 30.18 in 6.2 mi WSW 11.5 mph - N/A   Partly Cloudy
8:50 PM 69.8 °F 57.2 °F 64% 30.21 in 6.2 mi WSW 11.5 mph - N/A   Partly Cloudy
9:20 PM 68.0 °F 57.2 °F 68% 30.21 in - North - - N/A   Partly Cloudy